CW2303 Weather Reports


Display with metric or nautical units.
time (UTC)temp
F
wind
direction
speed
MPH
gust
MPH
rain 1hr
in
rain 24hr
in
rain mn
in
humidity
%
barometer
mb
20260509205044 79 312 2.0 10.0 0.00 0.01 0.01 31 1010.6
20260509204555 80 258 5.0 9.0 0.00 0.01 0.01 32 1010.6
20260509204044 80 302 0.0 6.0 0.00 0.01 0.01 31 1010.6
20260509203543 79 0 1.0 9.0 0.00 0.01 0.01 31 1010.7
20260509203054 79 311 3.0 9.0 0.00 0.01 0.01 32 1010.7
20260509202543 79 297 2.0 11.0 0.00 0.01 0.01 35 1010.9
20260509202043 79 296 4.0 12.0 0.00 0.01 0.01 31 1010.9
20260509201558 79 47 5.0 12.0 0.00 0.01 0.01 31 1011.0
20260509201043 79 295 5.0 12.0 0.00 0.01 0.01 32 1011.0
20260509200544 79 265 3.0 10.0 0.00 0.01 0.01 37 1011.1
20260509200055 79 255 2.0 9.0 0.00 0.01 0.01 35 1011.2
20260509195543 79 271 1.0 10.0 0.00 0.01 0.01 33 1011.3
20260509195045 78 283 3.0 14.0 0.00 0.01 0.01 32 1011.3
20260509194559 78 294 4.0 14.0 0.00 0.01 0.01 33 1011.3
20260509194043 78 268 8.0 14.0 0.00 0.01 0.01 32 1011.4
20260509193544 78 273 6.0 13.0 0.00 0.01 0.01 32 1011.3
20260509193056 78 269 5.0 11.0 0.00 0.01 0.01 34 1011.3
20260509192543 78 261 3.0 12.0 0.00 0.01 0.01 39 1011.2
20260509192043 78 284 6.0 12.0 0.00 0.01 0.01 37 1011.3
20260509191607 78 276 5.0 11.0 0.00 0.01 0.01 38 1011.3
20260509191042 78 254 7.0 11.0 0.00 0.01 0.01 37 1011.3
20260509190545 78 276 3.0 12.0 0.00 0.01 0.01 36 1011.4
20260509190056 78 281 3.0 12.0 0.00 0.01 0.01 38 1011.3
20260509185548 78 288 6.0 13.0 0.00 0.01 0.01 34 1011.5
20260509185048 78 279 6.0 13.0 0.00 0.01 0.01 35 1011.5
20260509184609 78 271 4.0 14.0 0.00 0.01 0.01 30 1011.4
20260509184048 78 308 1.0 14.0 0.00 0.01 0.01 35 1011.3
20260509183545 78 264 2.0 11.0 0.00 0.01 0.01 37 1011.3
20260509183101 78 303 3.0 9.0 0.00 0.01 0.01 32 1011.3
20260509182547 78 269 4.0 8.0 0.00 0.01 0.01 38 1011.3
20260509182048 77 287 3.0 8.0 0.00 0.01 0.01 36 1011.1
20260509181605 77 330 2.0 10.0 0.00 0.01 0.01 39 1011.4
20260509181047 77 0 5.0 10.0 0.00 0.01 0.01 33 1011.3
20260509180543 77 308 2.0 15.0 0.00 0.01 0.01 41 1011.4
20260509180112 77 298 4.0 15.0 0.00 0.01 0.01 36 1011.5
20260509175551 77 273 7.0 13.0 0.00 0.01 0.01 37 1011.3
20260509175046 77 279 4.0 12.0 0.00 0.01 0.01 38 1011.5
20260509174555 77 317 5.0 12.0 0.00 0.01 0.01 40 1011.5
20260509174045 77 290 3.0 10.0 0.00 0.01 0.01 38 1011.6
20260509173542 77 294 4.0 10.0 0.00 0.01 0.01 39 1011.6
20260509173106 77 279 4.0 10.0 0.00 0.01 0.01 39 1011.7
20260509172544 76 282 6.0 10.0 0.00 0.01 0.01 43 1011.8
20260509172044 76 286 5.0 11.0 0.00 0.01 0.01 42 1011.8
20260509171557 76 312 3.0 17.0 0.00 0.01 0.01 38 1011.8
20260509171046 76 273 7.0 17.0 0.00 0.01 0.01 41 1011.9
20260509170543 76 288 3.0 10.0 0.00 0.01 0.01 45 1011.7
20260509170057 76 329 5.0 11.0 0.00 0.01 0.01 43 1011.8
20260509165543 76 309 5.0 12.0 0.00 0.01 0.01 43 1011.8
20260509165044 75 281 6.0 14.0 0.00 0.01 0.01 43 1011.8
20260509164555 75 276 4.0 16.0 0.00 0.01 0.01 44 1011.7
20260509164043 75 286 6.0 16.0 0.00 0.01 0.01 44 1011.7
20260509163546 75 257 10.0 16.0 0.00 0.01 0.01 42 1011.8
20260509163055 74 269 6.0 12.0 0.00 0.01 0.01 44 1011.8
20260509162544 74 283 6.0 12.0 0.00 0.01 0.01 47 1011.8
20260509162042 74 287 5.0 11.0 0.00 0.01 0.01 49 1011.8
20260509161601 74 259 3.0 11.0 0.00 0.01 0.01 49 1011.8
20260509161043 73 308 4.0 11.0 0.00 0.01 0.01 48 1011.8
20260509160544 73 260 4.0 11.0 0.00 0.01 0.01 49 1011.8
20260509160056 73 248 3.0 8.0 0.00 0.01 0.01 55 1011.7
20260509155543 73 285 2.0 10.0 0.00 0.01 0.01 54 1011.7
20260509155043 72 280 3.0 10.0 0.00 0.01 0.01 56 1011.8
20260509154559 72 269 3.0 6.0 0.00 0.01 0.01 57 1011.7
20260509154044 71 244 2.0 7.0 0.00 0.01 0.01 58 1011.7
20260509153543 71 305 3.0 8.0 0.00 0.01 0.01 59 1011.7
20260509153103 70 256 4.0 9.0 0.00 0.01 0.01 60 1011.7
20260509152543 70 302 5.0 9.0 0.00 0.01 0.01 60 1011.8
20260509152045 70 271 3.0 9.0 0.00 0.01 0.01 59 1011.7
20260509151554 70 289 4.0 9.0 0.00 0.01 0.01 61 1011.7
20260509151043 69 255 3.0 8.0 0.00 0.01 0.01 63 1011.7
20260509150544 69 268 2.0 8.0 0.00 0.01 0.01 65 1011.8
20260509150054 68 265 3.0 9.0 0.00 0.01 0.01 65 1011.7
20260509145543 68 265 3.0 9.0 0.00 0.01 0.01 68 1011.6
20260509145042 67 275 4.0 11.0 0.00 0.01 0.01 68 1011.6
20260509144553 67 260 6.0 11.0 0.00 0.01 0.01 67 1011.6
20260509144043 67 259 6.0 11.0 0.00 0.01 0.01 66 1011.5
20260509143544 66 286 4.0 9.0 0.00 0.01 0.01 71 1011.4
20260509143051 66 273 3.0 8.0 0.00 0.01 0.01 74 1011.4
20260509142545 65 262 4.0 8.0 0.00 0.01 0.01 75 1011.5
20260509142044 65 252 3.0 7.0 0.00 0.01 0.01 78 1011.5
20260509141555 65 266 5.0 7.0 0.00 0.01 0.01 79 1011.5
20260509141044 64 263 3.0 6.0 0.00 0.01 0.01 82 1011.4
20260509140547 64 252 1.0 4.0 0.00 0.01 0.01 85 1011.5
20260509140105 63 236 1.0 4.0 0.00 0.01 0.01 86 1011.4
20260509135543 63 257 1.0 6.0 0.00 0.01 0.01 88 1011.4
20260509135043 62 243 2.0 6.0 0.00 0.01 0.01 90 1011.4
20260509134552 61 265 2.0 6.0 0.00 0.01 0.01 91 1011.4
20260509134048 61 266 1.0 4.0 0.00 0.01 0.01 92 1011.4
20260509133543 60 255 0.0 2.0 0.00 0.01 0.01 94 1011.3
20260509133053 59 229 0.0 4.0 0.00 0.01 0.01 95 1011.3
20260509132545 59 256 1.0 4.0 0.00 0.01 0.01 95 1011.2
20260509132041 58 242 0.0 4.0 0.00 0.01 0.01 96 1011.1
20260509131552 57 274 1.0 3.0 0.00 0.01 0.01 96 1011.1
20260509131044 57 276 1.0 3.0 0.00 0.01 0.01 97 1011.1
20260509130542 57 261 1.0 3.0 0.00 0.01 0.01 97 1011.1
20260509130052 56 271 1.0 2.0 0.00 0.01 0.01 97 1011.1
20260509125546 56 263 1.0 2.0 0.00 0.01 0.01 97 1011.1
20260509125044 56 0 0.0 2.0 0.00 0.01 0.01 97 1011.1
20260509124556 56 0 0.0 3.0 0.00 0.01 0.01 97 1011.1
20260509124045 55 0 0.0 3.0 0.00 0.01 0.01 97 1011.1
20260509123547 55 254 2.0 3.0 0.00 0.01 0.01 97 1011.1
20260509123053 54 261 1.0 3.0 0.00 0.01 0.01 97 1011.1
20260509122545 54 273 1.0 2.0 0.00 0.01 0.01 97 1011.1
20260509122045 54 270 0.0 2.0 0.00 0.01 0.01 97 1011.1
20260509121553 53 0 0.0 0.0 0.00 0.01 0.01 97 1011.1
20260509121048 53 0 0.0 0.0 0.00 0.01 0.01 97 1011.1
20260509120542 52 0 0.0 0.0 0.00 0.01 0.01 97 1011.0
20260509120055 51 0 0.0 0.0 0.00 0.01 0.01 97 1011.0
20260509115544 50 0 0.0 0.0 0.00 0.01 0.01 97 1010.9
20260509115041 50 0 0.0 0.0 0.00 0.01 0.01 96 1010.9
20260509114553 50 0 0.0 0.0 0.00 0.01 0.01 96 1010.9
20260509114046 50 0 0.0 0.0 0.00 0.01 0.01 96 1010.8
20260509113546 50 0 0.0 0.0 0.00 0.01 0.01 96 1010.7
20260509113051 50 0 0.0 0.0 0.00 0.01 0.01 97 1010.7
20260509112545 49 0 0.0 0.0 0.00 0.01 0.01 96 1010.5
20260509112045 49 0 0.0 0.0 0.00 0.01 0.01 96 1010.4
20260509111554 49 0 0.0 0.0 0.00 0.01 0.01 96 1010.5
20260509111045 49 0 0.0 0.0 0.00 0.01 0.01 96 1010.4
20260509110545 50 0 0.0 0.0 0.00 0.01 0.01 96 1010.3
20260509110051 49 0 0.0 0.0 0.00 0.01 0.01 96 1010.4
20260509105545 49 0 0.0 0.0 0.00 0.01 0.01 96 1010.2
20260509105045 49 0 0.0 0.0 0.00 0.01 0.01 96 1010.1
20260509104554 49 0 0.0 0.0 0.00 0.01 0.01 96 1010.1
20260509104043 49 0 0.0 0.0 0.00 0.01 0.01 96 1010.2
20260509103544 49 0 0.0 0.0 0.01 0.01 0.01 96 1010.2
20260509103104 49 0 0.0 0.0 0.01 0.01 0.01 96 1010.2
20260509102544 49 0 0.0 0.0 0.01 0.01 0.01 95 1010.2
20260509102044 50 0 0.0 0.0 0.01 0.01 0.01 94 1010.1
20260509101559 51 0 0.0 0.0 0.01 0.01 0.01 96 1010.2
20260509101043 51 0 0.0 0.0 0.01 0.01 0.01 96 1010.0
20260509100543 51 0 0.0 0.0 0.01 0.01 0.01 96 1010.1
20260509100051 52 0 0.0 0.0 0.01 0.01 0.01 96 1010.1
20260509095543 52 0 0.0 0.0 0.01 0.01 0.01 96 1010.1
20260509095043 52 0 0.0 0.0 0.01 0.01 0.01 96 1010.1
20260509094559 52 0 0.0 0.0 0.01 0.01 0.01 96 1010.1
20260509094043 52 0 0.0 0.0 0.01 0.01 0.01 96 1010.2
20260509093543 52 0 0.0 0.0 0.00 0.00 0.00 96 1010.2
20260509093058 52 0 0.0 0.0 0.00 0.00 0.00 96 1010.2
20260509092546 52 0 0.0 0.0 0.00 0.00 0.00 96 1010.3
20260509092047 52 0 0.0 0.0 0.00 0.00 0.00 96 1010.2
20260509091555 52 0 0.0 0.0 0.00 0.00 0.00 96 1010.3
20260509091043 52 0 0.0 0.0 0.00 0.00 0.00 96 1010.3
20260509090544 52 0 0.0 0.0 0.00 0.00 0.00 96 1010.4
20260509090058 52 0 0.0 0.0 0.00 0.00 0.00 96 1010.3
20260509085546 51 0 0.0 0.0 0.00 0.00 0.00 96 1010.2
20260509085043 51 0 0.0 0.0 0.00 0.00 0.00 96 1010.2
20260509084600 52 0 0.0 0.0 0.00 0.00 0.00 95 1010.2
20260509084044 52 0 0.0 0.0 0.00 0.00 0.00 95 1010.2
20260509083545 52 0 0.0 0.0 0.00 0.00 0.00 96 1010.1
20260509083107 52 0 0.0 0.0 0.00 0.00 0.00 96 1010.2
20260509082544 52 0 0.0 0.0 0.00 0.00 0.00 96 1010.3
20260509082045 52 0 0.0 0.0 0.00 0.00 0.00 96 1010.3
20260509081553 52 0 0.0 0.0 0.00 0.00 0.00 96 1010.2
20260509081044 52 0 0.0 0.0 0.00 0.00 0.00 95 1010.2
20260509080543 52 0 0.0 0.0 0.00 0.00 0.00 95 1010.2
20260509080053 52 0 0.0 0.0 0.00 0.00 0.00 95 1010.1
20260509075543 51 0 0.0 0.0 0.00 0.00 0.00 95 1010.1
20260509075043 51 0 0.0 0.0 0.00 0.00 0.00 95 1010.2
20260509074610 52 0 0.0 0.0 0.00 0.00 0.00 95 1010.2
20260509074042 52 0 0.0 0.0 0.00 0.00 0.00 95 1010.1
20260509073546 52 0 0.0 0.0 0.00 0.00 0.00 95 1010.1
20260509073105 52 0 0.0 0.0 0.00 0.00 0.00 95 1010.0
20260509072546 52 0 0.0 0.0 0.00 0.00 0.00 95 1010.1
20260509072041 52 0 0.0 0.0 0.00 0.00 0.00 95 1010.0
20260509071556 52 0 0.0 0.0 0.00 0.00 0.00 95 1010.0
20260509071044 52 0 0.0 0.0 0.00 0.00 0.00 95 1009.9
20260509070546 52 0 0.0 0.0 0.00 0.00 0.00 95 1009.9
20260509070057 52 0 0.0 0.0 0.00 0.00 0.00 95 1010.1
20260509065544 53 0 0.0 0.0 0.00 0.00 0.00 95 1010.1
20260509065045 53 0 0.0 0.0 0.00 0.00 0.00 95 1010.1
20260509064550 52 0 0.0 0.0 0.00 0.00 0.00 95 1010.1
20260509064045 52 0 0.0 0.0 0.00 0.00 0.00 95 1010.1
20260509063546 52 0 0.0 0.0 0.00 0.00 0.00 94 1010.3
20260509063101 52 0 0.0 0.0 0.00 0.00 0.00 94 1010.3
20260509062545 52 0 0.0 0.0 0.00 0.00 0.00 94 1010.3
20260509062045 52 0 0.0 0.0 0.00 0.00 0.00 94 1010.3
20260509061556 52 0 0.0 0.0 0.00 0.00 0.00 94 1010.3
20260509061041 53 0 0.0 0.0 0.00 0.00 0.00 94 1010.3
20260509060547 53 0 0.0 0.0 0.00 0.00 0.00 94 1010.3
20260509060117 53 0 0.0 0.0 0.00 0.00 0.00 94 1010.4
20260509055545 53 0 0.0 0.0 0.00 0.00 0.00 94 1010.5
20260509055045 53 0 0.0 0.0 0.00 0.00 0.00 94 1010.5
20260509054553 53 0 0.0 0.0 0.00 0.00 0.00 93 1010.6
20260509054045 53 0 0.0 0.0 0.00 0.00 0.00 93 1010.6
20260509053545 54 0 0.0 0.0 0.00 0.00 0.00 93 1010.6
20260509053103 54 0 0.0 0.0 0.00 0.00 0.00 93 1010.4
20260509052544 54 0 0.0 0.0 0.00 0.00 0.00 94 1010.4
20260509052044 54 0 0.0 0.0 0.00 0.00 0.00 93 1010.3
20260509051601 54 0 0.0 0.0 0.00 0.00 0.00 93 1010.3
20260509051045 54 0 0.0 1.0 0.00 0.00 0.00 93 1010.3
20260509050542 54 0 0.0 1.0 0.00 0.00 0.00 92 1010.2
20260509045547 55 0 0.0 0.0 0.00 0.00 0.00 91 1010.1
20260509045045 55 0 0.0 0.0 0.00 0.00 0.00 91 1010.0
20260509044557 55 0 0.0 0.0 0.00 0.00 0.00 91 1010.0
20260509044046 55 0 0.0 0.0 0.00 0.00 0.00 91 1010.0
20260509043546 56 0 0.0 1.0 0.00 0.00 0.00 90 1010.1
20260509043057 56 0 0.0 1.0 0.00 0.00 0.00 89 1010.1
20260509042545 56 0 0.0 0.0 0.00 0.00 0.00 89 1010.2
20260509042045 57 0 0.0 0.0 0.00 0.00 0.00 88 1010.1
20260509041555 57 0 0.0 0.0 0.00 0.00 0.00 88 1010.2
20260509041046 57 0 0.0 1.0 0.00 0.00 0.00 88 1010.2
20260509040545 58 0 0.0 1.0 0.00 0.00 0.00 87 1010.2
20260509040108 58 0 0.0 1.0 0.00 0.00 0.00 86 1010.2
20260509035546 58 0 0.0 0.0 0.00 0.00 0.00 85 1010.2
20260509035046 59 0 0.0 2.0 0.00 0.00 0.00 85 1010.2
20260509034552 59 0 0.0 2.0 0.00 0.00 0.00 84 1010.2
20260509034042 59 263 0.0 1.0 0.00 0.00 0.00 84 1010.0
20260509033545 59 0 0.0 1.0 0.00 0.00 0.00 85 1010.0
20260509033126 59 0 0.0 7.0 0.00 0.00 0.00 85 1010.0
20260509032546 59 0 1.0 8.0 0.00 0.00 0.00 85 1010.0
20260509032045 59 340 3.0 8.0 0.00 0.00 0.00 85 1010.0
20260509031554 59 18 2.0 10.0 0.00 0.00 0.00 87 1010.2
20260509031045 59 13 3.0 12.0 0.00 0.00 0.00 88 1010.3
20260509030545 60 311 7.0 12.0 0.00 0.00 0.00 88 1010.6
20260509030051 60 17 6.0 12.0 0.00 0.00 0.00 88 1010.7
20260509025544 60 47 7.0 12.0 0.00 0.00 0.00 87 1010.6
20260509025046 60 326 7.0 12.0 0.00 0.00 0.00 85 1010.3
20260509024601 61 333 4.0 12.0 0.00 0.00 0.00 83 1010.0
20260509024042 62 341 7.0 17.0 0.00 0.00 0.00 80 1010.0
20260509023544 63 338 8.0 17.0 0.00 0.00 0.00 76 1010.1
20260509023050 64 321 9.0 14.0 0.00 0.00 0.00 71 1009.7
20260509022545 64 343 8.0 14.0 0.00 0.00 0.00 66 1009.4
20260509022045 64 292 3.0 6.0 0.00 0.00 0.00 64 1009.1
20260509021552 64 302 1.0 6.0 0.00 0.00 0.00 65 1008.5
20260509021046 64 209 1.0 2.0 0.00 0.00 0.00 65 1008.0
20260509020545 64 0 0.0 2.0 0.00 0.00 0.00 65 1008.0
20260509020107 64 160 0.0 2.0 0.00 0.00 0.00 65 1007.7
20260509015047 64 155 0.0 4.0 0.00 0.00 0.00 64 1007.4
20260509014550 64 0 0.0 4.0 0.00 0.00 0.00 64 1007.5
20260509014047 64 0 0.0 1.0 0.00 0.00 0.00 64 1007.4
20260509013545 64 0 0.0 2.0 0.00 0.00 0.00 64 1007.2
20260509013057 64 0 0.0 2.0 0.00 0.00 0.00 64 1007.1
20260509012544 65 0 0.0 1.0 0.00 0.00 0.00 64 1007.0
20260509012044 65 0 0.0 2.0 0.00 0.00 0.00 64 1007.0
20260509011559 65 0 0.0 3.0 0.00 0.00 0.00 63 1007.1
20260509011042 65 145 1.0 3.0 0.00 0.00 0.00 63 1007.0
20260509010545 65 143 0.0 5.0 0.00 0.00 0.00 63 1007.2
20260509010056 65 0 0.0 5.0 0.00 0.00 0.00 62 1007.3
20260509005544 65 201 1.0 3.0 0.00 0.00 0.00 61 1007.5
20260509005044 66 207 0.0 5.0 0.00 0.00 0.00 61 1007.6
20260509004558 66 144 0.0 5.0 0.00 0.00 0.00 60 1007.3
20260509004044 66 159 0.0 4.0 0.00 0.00 0.00 59 1007.4
20260509003544 67 154 0.0 2.0 0.00 0.00 0.00 58 1007.5
20260509003058 67 0 0.0 2.0 0.00 0.00 0.00 57 1007.6
20260509002543 68 225 0.0 4.0 0.00 0.00 0.00 55 1007.8
20260509002043 68 214 0.0 4.0 0.00 0.00 0.00 55 1007.7
20260509001551 68 227 1.0 4.0 0.00 0.00 0.00 54 1007.7
20260509001044 69 214 0.0 4.0 0.00 0.00 0.00 53 1007.7
20260509000544 69 0 1.0 4.0 0.00 0.00 0.00 55 1007.6
20260509000053 69 129 1.0 4.0 0.00 0.00 0.00 54 1007.4
20260508235548 69 190 0.0 5.0 0.00 0.00 0.00 54 1007.4
20260508235048 69 164 0.0 6.0 0.00 0.00 0.00 53 1007.5
20260508234557 70 202 1.0 6.0 0.00 0.00 0.00 52 1007.6
20260508234044 70 227 1.0 7.0 0.00 0.00 0.00 52 1008.0
20260508233544 70 209 2.0 7.0 0.00 0.00 0.00 52 1008.2
20260508233104 71 200 2.0 6.0 0.00 0.00 0.00 52 1008.3
20260508232543 71 139 1.0 5.0 0.00 0.00 0.00 51 1008.2
20260508232043 71 174 0.0 4.0 0.00 0.00 0.00 52 1008.3
20260508231551 71 257 1.0 4.0 0.00 0.00 0.00 49 1008.4
20260508231044 71 279 2.0 7.0 0.00 0.00 0.00 47 1008.8
20260508230543 71 251 3.0 10.0 0.00 0.00 0.00 46 1008.9
20260508230056 71 217 3.0 10.0 0.00 0.00 0.00 46 1008.9
20260508225543 71 223 3.0 10.0 0.00 0.00 0.00 46 1009.0
20260508225043 71 152 2.0 6.0 0.00 0.00 0.00 46 1009.1
20260508224556 72 184 1.0 6.0 0.00 0.00 0.00 49 1009.2
20260508224043 72 0 1.0 6.0 0.00 0.00 0.00 46 1009.2
20260508223543 72 215 1.0 8.0 0.00 0.00 0.00 45 1009.1
20260508223053 72 257 2.0 8.0 0.00 0.00 0.00 45 1009.2
20260508222544 72 254 4.0 10.0 0.00 0.00 0.00 43 1009.2
20260508222045 73 246 4.0 10.0 0.00 0.00 0.00 45 1009.0
20260508221557 73 272 1.0 5.0 0.00 0.00 0.00 48 1008.9
20260508221043 73 225 1.0 5.0 0.00 0.00 0.00 46 1008.7
20260508220543 74 217 2.0 8.0 0.00 0.00 0.00 45 1008.6
20260508220055 74 231 2.0 8.0 0.00 0.00 0.00 44 1008.4
20260508215543 75 251 3.0 8.0 0.00 0.00 0.00 45 1008.3
20260508215044 76 200 2.0 10.0 0.00 0.00 0.00 46 1008.1
20260508214552 76 191 4.0 10.0 0.00 0.00 0.00 46 1008.1
20260508214044 76 187 4.0 11.0 0.00 0.00 0.00 43 1008.1
20260508213543 76 168 5.0 11.0 0.00 0.00 0.00 46 1008.1
20260508213055 76 212 3.0 9.0 0.00 0.00 0.00 45 1008.1
20260508212543 76 225 5.0 12.0 0.00 0.00 0.00 43 1008.2
20260508212047 76 194 3.0 13.0 0.00 0.00 0.00 43 1008.2
20260508211554 76 145 5.0 13.0 0.00 0.00 0.00 45 1008.5
20260508211043 76 156 2.0 11.0 0.00 0.00 0.00 46 1008.6
20260508210545 76 192 3.0 11.0 0.00 0.00 0.00 44 1008.6
20260508210053 76 189 2.0 8.0 0.00 0.00 0.00 50 1008.7
20260508205543 76 203 3.0 8.0 0.00 0.00 0.00 46 1008.7